This is the latest recevied weather packets stored in our database for station/object KA9CBS. If no packets are shown the sender has not sent any weather packets the latest 10 day(s).
| Time | Temp. | Humidity | Pressure | Rain* | Wind** | Luminosity | Snow |
|---|---|---|---|---|---|---|---|
| 1788125687 | 32.78° C | 42% | 1018.1 hPa | 0 mm | - | 390 W/m² | - |
| 1788125383 | 32.78° C | 41% | 1018.1 hPa | 0 mm | - | 386 W/m² | - |
| 1788125078 | 32.78° C | 43% | 1018 hPa | 0 mm | - | 407 W/m² | - |
| 1788124777 | 33.33° C | 42% | 1018.1 hPa | 0 mm | - | 441 W/m² | - |
| 1788124472 | 33.33° C | 41% | 1018.1 hPa | 0 mm | - | 206 W/m² | - |
| 1788124162 | 32.78° C | 42% | 1018.1 hPa | 0 mm | - | 337 W/m² | - |
| 1788123861 | 32.78° C | 41% | 1018.1 hPa | 0 mm | - | 478 W/m² | - |
| 1788123558 | 32.78° C | 42% | 1018.2 hPa | 0 mm | - | 493 W/m² | - |
| 1788123253 | 32.78° C | 40% | 1018.2 hPa | 0 mm | - | 495 W/m² | - |
| 1788122949 | 33.33° C | 39% | 1018.4 hPa | 0 mm | - | 513 W/m² | - |
| 1788122647 | 33.33° C | 42% | 1018.2 hPa | 0 mm | - | 541 W/m² | - |
| 1788122342 | 32.78° C | 41% | 1018.3 hPa | 0 mm | - | 551 W/m² | - |
| 1788122039 | 33.33° C | 39% | 1018.4 hPa | 0 mm | - | 569 W/m² | - |
| 1788121737 | 33.33° C | 38% | 1018.4 hPa | 0 mm | - | 558 W/m² | - |
| 1788121433 | 33.33° C | 41% | 1018.6 hPa | 0 mm | - | 563 W/m² | - |
| 1788121128 | 33.33° C | 41% | 1018.7 hPa | 0 mm | - | 610 W/m² | - |
| 1788120822 | 33.33° C | 43% | 1018.8 hPa | 0 mm | - | 667 W/m² | - |
| 1788120518 | 33.33° C | 41% | 1018.6 hPa | 0 mm | - | 615 W/m² | - |
| 1788120217 | 33.33° C | 43% | 1018.5 hPa | 0 mm | - | 621 W/m² | - |
| 1788119913 | 33.33° C | 40% | 1018.6 hPa | 0 mm | - | 647 W/m² | - |
| 1788119612 | 33.33° C | 42% | 1018.9 hPa | 0 mm | - | 654 W/m² | - |
| 1788119312 | 33.33° C | 42% | 1018.8 hPa | 0 mm | - | 630 W/m² | - |
| 1788119010 | 32.78° C | 41% | 1018.8 hPa | 0 mm | - | 638 W/m² | - |
| 1788118705 | 32.78° C | 41% | 1018.8 hPa | 0 mm | - | 592 W/m² | - |
| 1788118399 | 33.33° C | 40% | 1018.8 hPa | 0 mm | - | 624 W/m² | - |
* Rain latest hour (hover to see other rain measurements)
** Current wind speed in m/s (hover to see current wind gust speed)